Weather History for Canadian, TX

Change the Weather History Date:

Thursday, May 23, 2013

  Actual Average (KPPA) Record (KPPA)
Temperature  
Mean Temperature 68 °F -  
Max Temperature 76 °F 81 °F 98 °F (2012)
Min Temperature 59 °F 54 °F 46 °F (1988)
Cooling Degree Days 2    
Growing Degree Days 18 (Base 50)    
Moisture  
Dew Point 58 °F    
Average Humidity 70    
Maximum Humidity 85    
Minimum Humidity 51    
Precipitation  
Precipitation 0.00 in - - ()
Sea Level Pressure  
Sea Level Pressure 29.99 in    
Wind  
Wind Speed 13 mph (East)    
Max Wind Speed 23 mph    
Max Gust Speed 28 mph    
Visibility 10 miles    
Events      
Averages and records for this station are not official NWS values.
T = Trace of Precipitation, MM = Missing Value Source: NWS Daily Summary

Daily Weather History Graph

Daily Weather History Graph

Search for Another Location

Airport:

Trip Planner

Search our weather history database for the weather conditions in past years. The results will help you decide how hot, cold, wet, or windy it might be!

Date:

Astronomy

May. 23, 2013 Rise Set
Actual Time 6:30 AM CDT 8:46 PM CDT
Civil Twilight 6:01 AM CDT 9:15 PM CDT
Nautical Twilight 5:25 AM CDT 9:51 PM CDT
Astronomical Twilight 4:46 AM CDT 10:30 PM CDT
Moon 7:23 PM CDT (5/23) 5:13 AM CDT (5/23)
Length of Visible Light 15h 14m
Length of Day
14h 16m
Waxing Gibbous, 97% of the Moon is Illuminated
May 23
Waxing Gibbous
May 24
Full
May 31
Last Quarter
Jun 8
New
Jun 16
First Quarter

Hourly Weather History & Observations

Time (CDT) Temp. Dew Point Humidity Pressure Visibility Wind Dir Wind Speed Gust Speed Precip Events Conditions
12:15 AM 67.3 °F 48.4 °F 51% 29.89 in 10.0 mi ESE 11.5 mph - N/A   Clear
12:35 AM 66.2 °F 49.1 °F 54% 29.89 in 10.0 mi ESE 10.4 mph - N/A   Clear
1:15 AM 66.4 °F 51.1 °F 58% 29.89 in 10.0 mi SE 12.7 mph - N/A   Clear
1:35 AM 65.7 °F 51.8 °F 61% 29.90 in 10.0 mi ESE 11.5 mph - N/A   Clear
1:55 AM 66.2 °F 52.0 °F 60% 29.90 in 10.0 mi SE 12.7 mph - N/A   Clear
2:15 AM 65.8 °F 52.0 °F 61% 29.90 in 10.0 mi ESE 11.5 mph - N/A   Clear
2:35 AM 65.7 °F 52.2 °F 62% 29.90 in 10.0 mi ESE 11.5 mph - N/A   Clear
2:55 AM 64.6 °F 52.2 °F 64% 29.90 in 10.0 mi East 10.4 mph - N/A   Clear
3:15 AM 63.3 °F 52.7 °F 68% 29.90 in 10.0 mi East 10.4 mph - N/A   Clear
3:35 AM 62.4 °F 52.9 °F 71% 29.91 in 10.0 mi East 3.5 mph - N/A   Clear
3:55 AM 61.3 °F 53.1 °F 74% 29.91 in 10.0 mi East 6.9 mph - N/A   Clear
4:15 AM 60.8 °F 53.6 °F 77% 29.91 in 10.0 mi East 9.2 mph - N/A   Clear
4:35 AM 60.4 °F 53.6 °F 78% 29.91 in 10.0 mi East 6.9 mph - N/A   Clear
4:55 AM 59.9 °F 53.6 °F 80% 29.91 in 10.0 mi East 6.9 mph - N/A   Clear
5:15 AM 60.1 °F 53.6 °F 79% 29.91 in 10.0 mi East 8.1 mph - N/A   Clear
5:35 AM 59.9 °F 54.0 °F 81% 29.92 in 10.0 mi East 4.6 mph - N/A   Clear
5:55 AM 59.9 °F 54.5 °F 82% 29.92 in 10.0 mi East 5.8 mph - N/A   Clear
6:15 AM 59.4 °F 54.5 °F 84% 29.92 in 10.0 mi East 5.8 mph - N/A   Clear
6:35 AM 59.4 °F 54.7 °F 84% 29.94 in 10.0 mi East 9.2 mph - N/A   Clear
6:55 AM 59.9 °F 55.4 °F 85% 29.95 in 10.0 mi East 10.4 mph - N/A   Clear
7:15 AM 60.8 °F 55.9 °F 84% 29.96 in 10.0 mi East 6.9 mph - N/A   Clear
7:35 AM 61.3 °F 56.3 °F 83% 29.96 in 10.0 mi East 10.4 mph - N/A   Clear
7:55 AM 62.6 °F 56.8 °F 81% 29.97 in 10.0 mi East 10.4 mph - N/A   Clear
8:15 AM 63.9 °F 57.2 °F 79% 29.98 in 10.0 mi East 9.2 mph - N/A   Clear
8:35 AM 65.3 °F 58.1 °F 77% 29.98 in 10.0 mi East 10.4 mph - N/A   Clear
8:55 AM 66.2 °F 58.3 °F 76% 30.00 in 10.0 mi East 13.8 mph - N/A   Clear
9:15 AM 67.5 °F 59.0 °F 74% 30.01 in 10.0 mi East 15.0 mph - N/A   Clear
9:35 AM 69.4 °F 59.9 °F 72% 30.02 in 10.0 mi East 13.8 mph 21.9 mph N/A   Clear
9:55 AM 70.3 °F 60.1 °F 70% 30.02 in 10.0 mi ESE 15.0 mph - N/A   Clear
10:15 AM 72.0 °F 60.6 °F 67% 30.02 in 10.0 mi East 17.3 mph 23.0 mph N/A   Clear
10:35 AM 73.6 °F 61.7 °F 66% 30.02 in 10.0 mi East 19.6 mph 24.2 mph N/A   Clear
10:55 AM 73.8 °F 61.9 °F 66% 30.02 in 10.0 mi ESE 21.9 mph 25.3 mph N/A   Scattered Clouds
11:15 AM 75.2 °F 62.2 °F 64% 30.02 in 10.0 mi ESE 19.6 mph 26.5 mph N/A   Scattered Clouds
11:35 AM 75.2 °F 62.6 °F 65% 30.02 in 10.0 mi ESE 16.1 mph 24.2 mph N/A   Scattered Clouds
11:55 AM 75.6 °F 63.0 °F 65% 30.03 in 10.0 mi ESE 18.4 mph 25.3 mph N/A   Scattered Clouds
12:15 PM 76.6 °F 63.7 °F 64% 30.03 in 10.0 mi SE 23.0 mph 27.6 mph N/A   Mostly Cloudy
12:35 PM 75.0 °F 64.2 °F 69% 30.04 in 10.0 mi East 18.4 mph 27.6 mph N/A   Overcast
12:55 PM 70.3 °F 61.7 °F 74% 30.04 in 10.0 mi ESE 19.6 mph 25.3 mph N/A   Overcast
1:15 PM 71.4 °F 61.5 °F 71% 30.05 in 10.0 mi ESE 18.4 mph 25.3 mph N/A   Overcast
1:35 PM 71.8 °F 60.4 °F 67% 30.04 in 10.0 mi ESE 19.6 mph 26.5 mph N/A   Overcast
1:55 PM 73.4 °F 60.4 °F 64% 30.05 in 10.0 mi ESE 16.1 mph 25.3 mph N/A   Overcast
2:15 PM 72.3 °F 60.1 °F 65% 30.05 in 10.0 mi ESE 18.4 mph 25.3 mph N/A   Overcast
2:35 PM 75.2 °F 60.4 °F 60% 30.05 in 10.0 mi East 16.1 mph - N/A   Overcast
2:55 PM 73.4 °F 59.5 °F 62% 30.05 in 10.0 mi East 15.0 mph 23.0 mph N/A   Overcast
3:15 PM 75.2 °F 60.1 °F 59% 30.03 in 10.0 mi East 18.4 mph 21.9 mph N/A   Overcast
3:35 PM 76.5 °F 60.3 °F 57% 30.03 in 10.0 mi East 17.3 mph 24.2 mph N/A   Scattered Clouds
3:55 PM 76.1 °F 60.3 °F 58% 30.02 in 10.0 mi East 17.3 mph 25.3 mph N/A   Scattered Clouds
4:15 PM 75.4 °F 60.1 °F 59% 30.02 in 10.0 mi East 18.4 mph 24.2 mph N/A   Scattered Clouds
4:35 PM 75.2 °F 60.4 °F 60% 30.01 in 10.0 mi East 19.6 mph 24.2 mph N/A   Mostly Cloudy
4:55 PM 75.7 °F 60.1 °F 58% 30.01 in 10.0 mi East 21.9 mph - N/A   Scattered Clouds
5:15 PM 75.4 °F 59.7 °F 58% 30.00 in 10.0 mi East 19.6 mph 24.2 mph N/A   Clear
5:35 PM 73.8 °F 59.4 °F 61% 30.01 in 10.0 mi East 17.3 mph 25.3 mph N/A   Clear
5:55 PM 73.2 °F 59.0 °F 61% 30.01 in 10.0 mi ESE 18.4 mph 23.0 mph N/A   Mostly Cloudy
6:15 PM 73.4 °F 59.9 °F 63% 29.99 in 10.0 mi East 17.3 mph 24.2 mph N/A   Mostly Cloudy
6:35 PM 74.5 °F 60.4 °F 61% 29.98 in 10.0 mi East 15.0 mph 24.2 mph N/A   Scattered Clouds
6:55 PM 72.7 °F 59.9 °F 64% 29.99 in 10.0 mi East 17.3 mph 21.9 mph N/A   Clear
7:15 PM 70.9 °F 59.4 °F 67% 30.00 in 10.0 mi East 15.0 mph 26.5 mph N/A   Clear
7:35 PM 70.0 °F 59.9 °F 70% 29.99 in 10.0 mi East 19.6 mph 25.3 mph N/A   Clear
7:55 PM 70.0 °F 59.9 °F 70% 29.98 in 10.0 mi East 16.1 mph 26.5 mph N/A   Clear
8:15 PM 69.8 °F 60.1 °F 71% 29.99 in 10.0 mi East 19.6 mph 26.5 mph N/A   Clear
8:35 PM 66.9 °F 58.8 °F 75% 30.01 in 10.0 mi East 19.6 mph 25.3 mph N/A   Clear
8:55 PM 65.7 °F 58.6 °F 78% 30.02 in 10.0 mi ESE 16.1 mph 19.6 mph N/A   Clear
9:15 PM 66.2 °F 59.0 °F 78% 30.03 in 10.0 mi ESE 13.8 mph 20.7 mph N/A   Mostly Cloudy
9:35 PM 65.7 °F 59.0 °F 79% 30.04 in 10.0 mi East 9.2 mph - N/A   Mostly Cloudy
9:55 PM 64.6 °F 58.6 °F 81% 30.03 in 10.0 mi East 8.1 mph - N/A   Scattered Clouds
10:15 PM 63.9 °F 58.5 °F 83% 30.05 in 10.0 mi East 10.4 mph - N/A   Clear
10:35 PM 64.0 °F 58.8 °F 83% 30.06 in 10.0 mi East 11.5 mph - N/A   Scattered Clouds
10:55 PM 64.6 °F 59.0 °F 82% 30.09 in 10.0 mi East 11.5 mph - N/A   Overcast
11:15 PM 63.9 °F 58.6 °F 83% 30.10 in 10.0 mi East 13.8 mph 18.4 mph N/A   Overcast
11:35 PM 63.5 °F 58.6 °F 84% 30.11 in 10.0 mi ESE 12.7 mph - N/A   Mostly Cloudy
11:55 PM 63.3 °F 58.5 °F 84% 30.10 in 10.0 mi East 9.2 mph - N/A   Scattered Clouds